This is the latest recevied weather packets stored in our database for station/object JF2ZGN-13. If no packets are shown the sender has not sent any weather packets the latest 10 day(s).
| Time | Temp. | Humidity | Pressure | Rain* | Wind** | Luminosity | Snow |
|---|---|---|---|---|---|---|---|
| 1777740829 | 13.89° C | 41% | 906.2 hPa | 0 mm | - | - | - |
| 1777740229 | 13.89° C | 41% | 906.1 hPa | 0 mm | - | - | - |
| 1777739628 | 13.89° C | 41% | 906.3 hPa | 0 mm | - | - | - |
| 1777739029 | 13.89° C | 41% | 906.1 hPa | 0 mm | - | - | - |
| 1777738427 | 13.89° C | 41% | 906 hPa | 0 mm | - | - | - |
| 1777737827 | 13.89° C | 40% | 906.1 hPa | 0 mm | - | - | - |
| 1777737226 | 13.89° C | 40% | 906.3 hPa | 0 mm | - | - | - |
| 1777736626 | 14.44° C | 39% | 906.4 hPa | 0 mm | - | - | - |
| 1777736026 | 14.44° C | 39% | 906.3 hPa | 0 mm | - | - | - |
| 1777735425 | 14.44° C | 39% | 906.3 hPa | 0 mm | - | - | - |
| 1777734825 | 14.44° C | 40% | 906.3 hPa | 0 mm | - | - | - |
| 1777734225 | 14.44° C | 39% | 906.4 hPa | 0 mm | - | - | - |
| 1777733624 | 14.44° C | 40% | 906.3 hPa | 0 mm | - | - | - |
| 1777733023 | 14.44° C | 40% | 906.3 hPa | 0 mm | - | - | - |
| 1777732423 | 14.44° C | 40% | 906.2 hPa | 0 mm | - | - | - |
| 1777731822 | 13.89° C | 39% | 906.4 hPa | 0 mm | - | - | - |
| 1777731221 | 14.44° C | 40% | 906.4 hPa | 0 mm | - | - | - |
| 1777730621 | 13.89° C | 36% | 906.5 hPa | 0 mm | - | - | - |
| 1777730021 | 14.44° C | 35% | 906.5 hPa | 0 mm | - | - | - |
| 1777729420 | 14.44° C | 31% | 906.4 hPa | 0 mm | - | - | - |
| 1777728820 | 14.44° C | 29% | 906.5 hPa | 0 mm | - | - | - |
| 1777728220 | 14.44° C | 28% | 906.6 hPa | 0 mm | - | - | - |
| 1777727619 | 14.44° C | 30% | 906.6 hPa | 0 mm | - | - | - |
| 1777727018 | 13.89° C | 35% | 906.5 hPa | 0 mm | - | - | - |
| 1777726418 | 14.44° C | 32% | 906.5 hPa | 0 mm | - | - | - |
* Rain since midnight (hover to see other rain measurements)
** Current wind speed in m/s (hover to see current wind gust speed)